"Pseudo-MPEC" for ZTF106N

Created 2025 Oct 11 9:35:15 UT using Find_Orb

Click here for an explanation of pseudo-MPECs

 
 Astrometry: 
     ZTF106N* C2025 09 24.20407422 25 51.794+19 57 16.09   ~9OFZ 19.33RUNEOCPI41
     ZTF106N  C2025 09 24.20442122 25 51.155+19 56 56.22   ~9OFZ 19.33RUNEOCPI41
     ZTF106N  C2025 09 24.22170922 25 18.138+19 38 45.35   ~9OGZx18.93RUNEOCPI41
     ZTF106N  C2025 09 24.22205622 25 17.435+19 38 24.41   ~9OGZx18.93RUNEOCPI41
     ZTF106N  C2025 09 24.25474522 24 16.220+19 04 22.91   ~9OFZ 19.43gUNEOCPI41
     ZTF106N  C2025 09 24.25509322 24 15.626+19 04 04.94   ~9OFZ 19.43gUNEOCPI41
     ZTF106N  C2025 09 24.25616922 24 13.608+19 02 57.69   ~9OFZ 19.22gUNEOCPI41
     ZTF106N  C2025 09 24.25650522 24 12.952+19 02 34.82   ~9OFZ 19.22gUNEOCPI41

Station data:
(I41) Palomar Mountain--ZTF  (N33.357336 W116.859780)  US/California.
   Observers B. T. Bolin, Z. T. F. Collaboration. Measurers B. T. Bolin,
   Z.-Y. Lin, F. J. Masci. 1.2-m f/2.4 Schmidt.

Orbital elements:  ZTF106N
   Perihelion 2025 Jun 5.619307 +/- 76.2 TT = 14:51:48.0 (JD 2460832.119307)
Epoch 2025 Sep 24.0 TT = JDT 2460942.5   Earth MOID: 0.0050   Ve: 0.0446
M 145.491013668 +/- 16              (J2000 ecliptic)             AutoNEOCP
n   1.318083889 +/- 0.0874          Peri.   16.723089 +/- 60
a   0.823835839 +/- 0.0364          Node   185.618990 +/- 70
e   0.25411626 +/- 0.0559           Incl.    2.373988 +/- 1.8
P   0.748/273.119d         H 28.55  G  0.15   U 11.2  SR
q 0.614485754 +/- 0.0791    Q 1.033185924 +/- 0.0132
6 of 8 observations 2025 Sept. 24 (75.5 min); mean residual 0".97
Residuals in arcseconds: 
250924 I41  .17-  1.0-    250924 I41( 2.1-  1.1-)   250924 I41  .13+  1.2+    
250924 I41  .16+  1.0+    250924 I41  .26-  2.0-    250924 I41  .34-  .84-    
250924 I41( 1.5-  1.9-)   250924 I41  .47+  1.6+    

Ephemerides (geocentric):
Date (UTC) HH   RA             Dec           delta  r     elong  mag " sig PA
---- --------  ------------   ------------  ------ ------ -----  --- --------
2025 10 11 10  21 38 00.162   -21 38 39.83  .05858 1.0300 121.4 24.5  21d 155
2025 10 11 11  21 38 00.635   -21 39 13.15  .05871 1.0301 121.4 24.5  21d 155
2025 10 11 12  21 38 01.114   -21 39 46.26  .05883 1.0301 121.3 24.5  21d 155
2025 10 11 13  21 38 01.600   -21 40 19.18  .05896 1.0301 121.3 24.5  21d 155
2025 10 11 14  21 38 02.092   -21 40 51.91  .05909 1.0301 121.3 24.5  21d 155
2025 10 11 15  21 38 02.591   -21 41 24.44  .05922 1.0302 121.2 24.5  21d 155
2025 10 11 16  21 38 03.096   -21 41 56.77  .05935 1.0302 121.2 24.5  21d 155
2025 10 11 17  21 38 03.607   -21 42 28.92  .05948 1.0302 121.1 24.5  21d 155
2025 10 11 18  21 38 04.125   -21 43 00.88  .05961 1.0302 121.1 24.5  21d 155
2025 10 11 19  21 38 04.649   -21 43 32.64  .05974 1.0302 121.0 24.5  21d 155
2025 10 11 20  21 38 05.179   -21 44 04.22  .05986 1.0303 121.0 24.5  21d 155
2025 10 11 21  21 38 05.715   -21 44 35.61  .05999 1.0303 121.0 24.5  21d 155
2025 10 11 22  21 38 06.258   -21 45 06.81  .06012 1.0303 120.9 24.6  21d 155
2025 10 11 23  21 38 06.807   -21 45 37.83  .06025 1.0303 120.9 24.6  21d 155
2025 10 12 00  21 38 07.362   -21 46 08.67  .06038 1.0304 120.8 24.6  21d 155
2025 10 12 01  21 38 07.924   -21 46 39.32  .06051 1.0304 120.8 24.6  21d 155
2025 10 12 02  21 38 08.491   -21 47 09.79  .06064 1.0304 120.8 24.6  21d 155
2025 10 12 03  21 38 09.065   -21 47 40.08  .06077 1.0304 120.7 24.6  21d 155
2025 10 12 04  21 38 09.645   -21 48 10.19  .06089 1.0305 120.7 24.6  21d 155
2025 10 12 05  21 38 10.230   -21 48 40.12  .06102 1.0305 120.6 24.6  21d 155
2025 10 12 06  21 38 10.822   -21 49 09.87  .06115 1.0305 120.6 24.6  21d 155
2025 10 12 07  21 38 11.420   -21 49 39.45  .06128 1.0305 120.5 24.6  21d 155
2025 10 12 08  21 38 12.024   -21 50 08.85  .06141 1.0305 120.5 24.6  21d 155
2025 10 12 09  21 38 12.634   -21 50 38.08  .06154 1.0306 120.5 24.6  21d 155
2025 10 12 10  21 38 13.250   -21 51 07.13  .06167 1.0306 120.4 24.6  21d 155
2025 10 12 11  21 38 13.873   -21 51 36.01  .06179 1.0306 120.4 24.6  21d 155
2025 10 12 12  21 38 14.501   -21 52 04.72  .06192 1.0306 120.3 24.6  21d 155
2025 10 12 13  21 38 15.134   -21 52 33.25  .06205 1.0306 120.3 24.6  21d 155
2025 10 12 14  21 38 15.774   -21 53 01.62  .06218 1.0307 120.2 24.6  21d 155
2025 10 12 15  21 38 16.420   -21 53 29.82  .06231 1.0307 120.2 24.6  21d 155
2025 10 12 16  21 38 17.072   -21 53 57.84  .06244 1.0307 120.2 24.7  21d 154
2025 10 12 17  21 38 17.729   -21 54 25.71  .06257 1.0307 120.1 24.7  21d 154
2025 10 12 18  21 38 18.393   -21 54 53.40  .06270 1.0308 120.1 24.7  21d 154
2025 10 12 19  21 38 19.062   -21 55 20.93  .06282 1.0308 120.0 24.7  21d 154
2025 10 12 20  21 38 19.737   -21 55 48.30  .06295 1.0308 120.0 24.7  21d 154
2025 10 12 21  21 38 20.418   -21 56 15.50  .06308 1.0308 120.0 24.7  21d 154
2025 10 12 22  21 38 21.105   -21 56 42.54  .06321 1.0308 119.9 24.7  21d 154
2025 10 12 23  21 38 21.797   -21 57 09.42  .06334 1.0309 119.9 24.7  21d 154
2025 10 13 00  21 38 22.495   -21 57 36.14  .06347 1.0309 119.8 24.7  21d 154
2025 10 13 01  21 38 23.199   -21 58 02.69  .06360 1.0309 119.8 24.7  21d 154
2025 10 13 02  21 38 23.909   -21 58 29.09  .06373 1.0309 119.8 24.7  21d 154
2025 10 13 03  21 38 24.624   -21 58 55.33  .06385 1.0309 119.7 24.7  21d 154
2025 10 13 04  21 38 25.345   -21 59 21.41  .06398 1.0310 119.7 24.7  21d 154
2025 10 13 05  21 38 26.072   -21 59 47.34  .06411 1.0310 119.6 24.7  21d 154
2025 10 13 06  21 38 26.805   -22 00 13.11  .06424 1.0310 119.6 24.7  21d 154
2025 10 13 07  21 38 27.543   -22 00 38.72  .06437 1.0310 119.5 24.7  21d 154
2025 10 13 08  21 38 28.286   -22 01 04.19  .06450 1.0310 119.5 24.7  21d 154
2025 10 13 09  21 38 29.036   -22 01 29.49  .06463 1.0311 119.5 24.7  21d 154